Theta_e
307 307 308 307 307 307 304 299 286 305 304 288 292 287 290 298 299 302 300 302 302 300 301 298 299 297 300 307 306 301 303 301 295 299 306 308 306 302 302 295 293 296 295 296
307 307 307 307 307 306 302 293 294 306 300 284 285 289 293 298 298 299 300 298 302 304 301 297 301 302 306 309 306 304 304 297 293 294 301 305 301 303 303 303 301 295 292 295
308 307 307 306 306 306 303 294 285 292 296 292 288 286 290 293 300 300 302 301 304 301 300 303 300 301 307 309 309 307 306 301 298 292 296 300 298 301 303 301 294 295 296 300
306 306 306 306 306 305 303 294 288 293 285 285 287 290 291 291 293 300 303 300 300 299 296 298 298 303 304 308 307 307 305 297 300 301 302 301 301 300 301 299 300 296 298 299
305 306 306 306 306 305 301 286 288 294 291 292 288 286 289 291 295 297 297 298 300 302 297 299 297 299 304 302 306 304 306 297 300 298 302 300 298 300 301 302 302 301 302 301
306 305 305 305 305 304 298 301 299 293 292 290 287 286 288 293 298 300 302 301 300 299 301 306 307 307 306 305 304 302 301 298 296 292 299 298 293 299 300 301 303 303 298 304
306 305 305 305 305 303 299 299 298 291 285 289 288 291 291 291 297 297 302 304 301 306 310 307 305 304 303 304 304 305 300 296 293 289 291 284 296 303 303 301 302 305 304 305
305 305 304 305 304 304 302 303 297 292 287 290 290 289 291 294 296 297 300 303 306 310 305 293 288 288 291 295 301 302 302 296 287 286 286 292 295 299 300 298 299 305 304 305
304 304 304 304 304 304 303 302 305 298 290 289 292 289 290 290 290 294 299 307 311 307 295 288 285 284 286 286 292 301 300 300 291 287 285 283 295 300 305 305 293 305 305 304
303 303 304 304 304 304 303 303 305 299 289 294 294 290 288 295 292 289 297 302 300 305 291 287 286 286 293 285 285 287 289 291 287 286 287 292 300 302 305 291 294 305 305 305
303 303 303 303 303 303 302 301 306 295 292 294 295 294 292 289 293 288 290 293 294 293 290 291 290 289 290 290 292 291 289 286 287 288 285 284 302 301 295 302 304 304 304 305
301 302 303 302 302 302 302 298 304 305 292 288 294 296 295 293 292 286 294 295 292 293 291 293 292 289 293 292 286 299 290 296 292 293 292 303 306 303 305 305 304 303 305 303
301 301 301 301 302 302 302 299 301 297 289 290 292 290 297 294 294 296 290 297 298 295 300 296 295 291 295 289 291 294 298 301 294 295 299 301 303 305 305 302 303 302 302 302
301 301 302 301 302 302 302 297 302 298 291 287 288 293 290 294 296 296 297 304 304 302 299 292 292 291 297 294 297 294 297 299 296 295 299 302 301 301 302 300 302 300 301 301
302 302 302 301 302 302 299 298 297 299 294 286 287 290 292 294 295 299 303 303 301 297 289 286 286 292 294 293 293 293 298 295 293 292 301 300 298 300 300 298 298 298 298 298
297 299 301 302 301 299 295 285 294 298 299 289 285 290 288 289 289 293 293 295 296 294 291 290 294 297 295 289 287 296 301 303 303 299 302 303 302 300 299 298 298 298 298 298
296 296 296 296 297 296 290 290 292 297 299 288 283 284 288 289 287 287 288 292 291 290 290 291 292 292 295 292 288 296 298 299 300 301 301 297 299 296 298 298 297 297 297 296
297 296 296 297 296 294 289 293 294 296 292 291 283 282 286 291 286 285 290 286 287 288 288 292 290 292 292 287 294 295 295 296 295 296 298 296 297 296 294 295 295 294 293 294
297 297 297 297 294 289 289 295 294 296 293 285 285 282 280 291 288 289 289 290 283 291 287 288 290 286 284 289 292 292 292 292 292 293 292 293 292 292 292 292 292 292 292 294
297 295 291 290 291 295 294 289 289 291 290 290 285 289 283 288 287 286 286 288 284 282 285 290 286 285 290 292 294 294 293 292 292 289 289 290 290 291 292 292 293 294 294 294
296 292 292 296 297 293 291 287 285 286 284 287 287 287 285 290 284 284 288 284 285 280 282 282 282 281 286 291 291 292 293 293 293 294 294 295 295 294 294 295 296 295 294 294
292 292 297 297 292 289 284 282 284 284 282 286 285 286 287 288 291 285 287 281 284 279 286 283 279 287 288 290 291 292 292 293 293 294 292 292 292 292 293 295 295 296 294 290
298 293 288 287 286 280 278 276 280 281 285 287 287 285 287 288 290 286 284 280 280 287 282 280 284 289 290 290 290 289 291 292 291 290 290 290 290 291 291 293 290 292 289 289
290 285 280 282 280 280 280 281 283 287 289 289 289 287 287 289 284 285 279 282 284 279 277 279 288 289 289 289 290 289 289 289 289 289 288 288 287 285 285 284 285 286 285 286
287 286 279 280 282 283 284 286 287 290 292 291 289 288 288 284 282 284 281 278 276 278 280 287 290 290 290 288 289 288 284 284 286 287 286 286 285 285 285 285 285 286 286 286
288 286 283 285 284 284 285 286 287 291 291 292 289 284 282 281 282 279 278 277 276 282 288 291 290 288 288 287 286 285 285 286 286 286 286 285 285 285 285 285 285 286 286 286
285 282 285 287 286 285 287 289 289 293 289 285 284 279 278 284 280 278 282 280 285 288 290 291 289 288 286 286 285 285 285 285 285 286 286 286 286 285 285 284 285 286 286 286
Wind_Speed
26 27 33 33 31 28 21 9 7 8 11 9 5 9 10 16 22 22 9 13 22 20 25 26 27 34 30 24 25 35 28 10 15 21 17 23 22 24 23 10 15 17 9 2
25 29 33 33 31 32 14 7 7 7 9 11 5 2 12 20 24 22 19 19 14 16 20 14 26 23 24 15 29 27 25 10 10 8 18 19 24 18 20 16 10 18 12 4
22 31 32 32 32 32 13 6 7 4 8 2 5 8 14 15 26 22 19 21 15 17 14 17 17 22 16 8 17 24 25 12 21 16 17 14 22 22 22 20 16 12 17 13
21 26 30 31 31 30 11 6 5 6 7 5 4 10 17 22 17 20 23 18 16 13 10 10 6 16 19 15 15 14 21 19 19 18 11 25 22 24 25 26 21 20 14 21
22 27 28 30 30 27 9 5 5 7 4 8 17 8 16 24 25 22 28 16 25 23 16 15 16 20 14 16 16 11 7 16 13 16 19 13 25 25 26 23 23 23 21 24
27 28 29 30 29 23 7 6 7 2 7 9 7 12 11 22 27 23 26 28 23 23 24 21 22 18 4 3 17 18 17 6 14 11 17 4 11 21 19 20 20 18 19 18
30 29 29 29 30 28 6 9 4 5 5 9 4 6 19 20 25 26 23 26 22 19 13 13 9 8 9 5 0 4 11 8 3 4 7 8 7 9 11 15 16 16 18 17
28 28 29 30 29 30 9 6 6 5 8 10 13 9 12 17 15 25 23 26 26 14 9 6 3 5 4 1 5 7 2 8 4 5 5 8 12 8 11 14 20 16 17 17
27 27 28 29 27 28 12 4 6 3 8 11 18 9 10 11 9 15 26 19 10 13 5 4 7 5 5 7 7 10 9 4 4 4 5 9 5 15 14 7 17 7 8 8
22 22 26 26 26 26 12 5 8 5 3 9 9 6 3 3 4 6 16 22 8 14 6 6 6 4 7 9 12 11 9 7 11 7 5 7 9 6 9 15 3 2 3 3
24 22 22 26 25 24 15 8 7 4 3 2 4 3 6 2 5 6 3 3 6 8 12 14 7 6 6 5 11 13 12 9 8 6 5 12 7 10 14 4 6 5 4 4
15 17 18 19 21 22 19 7 7 5 2 2 3 3 5 7 4 5 5 1 4 4 3 2 5 4 7 12 5 13 9 10 9 12 10 4 1 7 6 7 3 4 2 6
13 13 16 18 20 24 19 4 6 5 2 2 5 4 4 7 9 7 5 4 6 3 2 2 1 5 4 8 8 13 11 14 2 7 13 11 15 4 7 8 6 8 7 5
17 13 19 18 18 21 21 5 6 6 2 3 4 3 6 10 11 13 17 5 9 10 1 4 1 4 3 5 5 5 4 11 8 3 4 13 6 7 8 5 8 8 9 9
10 15 13 19 18 21 7 3 2 2 4 1 2 4 4 14 14 12 13 12 12 5 3 3 2 1 5 3 6 2 6 6 7 6 9 5 7 8 9 8 9 8 8 8
25 25 8 16 16 18 6 1 2 2 2 3 2 3 4 7 12 13 15 8 6 4 4 3 2 4 3 5 3 5 11 12 11 3 2 10 7 13 12 11 9 8 8 9
15 15 13 14 13 6 2 1 5 7 1 2 3 5 1 4 4 3 5 8 4 4 2 3 4 4 5 4 5 8 8 8 7 7 10 10 10 11 9 9 10 8 8 5
12 16 19 19 16 6 4 4 3 2 3 0 3 3 1 4 3 4 4 2 1 3 3 3 6 7 3 3 5 13 12 12 12 10 10 11 10 12 11 9 8 11 8 6
12 15 15 4 3 3 1 5 3 3 1 2 3 3 4 2 1 3 1 2 4 1 1 1 3 3 3 5 13 16 14 10 13 11 9 9 10 8 11 9 7 6 5 3
14 8 4 4 4 12 10 3 3 4 1 1 3 3 3 0 1 2 3 2 3 2 3 5 2 3 5 9 13 14 14 12 12 9 8 10 10 8 8 9 7 6 6 4
5 1 1 4 18 7 6 2 2 4 3 2 3 3 5 5 4 3 3 3 1 3 4 4 5 7 7 13 13 11 9 8 6 6 5 3 4 5 6 5 4 5 4 4
4 3 4 3 2 2 2 2 1 2 4 2 3 4 3 2 3 3 2 2 1 3 7 4 5 7 15 13 13 12 9 8 8 7 7 5 4 3 2 4 5 3 8 8
5 3 3 3 4 3 2 2 1 3 2 4 6 5 4 3 1 3 1 2 3 6 2 3 3 12 12 13 11 10 8 8 8 7 6 5 4 3 4 1 6 6 9 7
3 2 3 4 3 5 4 5 4 3 1 6 5 3 3 2 3 0 3 3 3 3 4 4 7 12 12 11 10 10 10 8 8 6 5 5 5 3 3 3 3 2 5 5
3 5 4 4 3 1 2 3 2 1 5 4 4 2 2 3 2 1 4 2 4 4 3 3 9 14 12 10 9 8 8 6 6 6 5 5 5 4 3 2 3 5 5 6
3 4 1 2 1 3 2 1 2 3 2 1 2 2 2 2 4 4 5 5 4 2 4 6 12 13 12 9 8 8 6 5 5 5 5 4 5 5 4 3 3 4 6 7
2 2 2 3 4 3 2 2 1 2 1 1 2 3 4 2 3 4 4 1 5 5 5 6 10 11 11 9 9 8 8 8 7 6 5 4 5 6 6 6 4 5 6 6
Wind_Direction
196 196 189 177 173 169 162 182 200 174 156 216 235 195 176 213 206 218 217 197 227 209 208 207 212 214 203 192 204 200 204 226 229 219 221 207 210 216 221 209 210 230 252 178
204 193 179 172 167 166 162 184 188 144 137 213 229 209 202 209 206 196 192 196 232 256 218 208 216 221 209 209 196 212 178 219 221 237 227 217 222 214 213 224 230 233 216 172
178 171 167 167 167 171 170 170 170 229 177 173 192 184 187 194 209 204 194 197 220 223 241 215 213 221 221 224 229 210 179 175 212 210 214 176 211 222 209 212 221 229 237 237
167 165 166 167 170 176 172 176 187 196 189 176 200 203 170 199 184 209 191 201 206 221 218 224 247 224 216 200 233 183 186 202 200 222 198 193 199 210 209 213 216 223 226 246
182 173 170 169 171 176 195 137 162 192 273 186 204 210 200 197 197 182 199 195 199 217 228 213 199 239 206 201 203 188 182 207 220 236 230 204 211 213 219 218 220 228 228 245
185 177 172 173 173 170 190 174 200 67 218 205 228 211 228 199 200 206 199 207 198 212 226 225 240 188 164 288 191 187 181 145 199 225 220 94 240 246 204 212 230 241 241 250
182 175 173 175 178 190 187 197 170 192 237 198 184 220 206 226 218 212 201 199 214 199 138 62 21 82 115 140 33 104 175 109 351 140 89 210 228 225 251 249 255 236 243 249
178 175 174 180 183 190 210 162 188 194 233 236 229 285 237 219 244 234 209 207 207 142 123 96 10 337 70 211 178 155 165 117 171 142 164 326 288 244 224 227 244 249 266 271
180 180 178 181 185 188 203 163 192 194 231 230 248 232 281 218 219 227 228 207 161 159 122 106 154 204 145 172 169 216 211 204 134 135 172 193 226 225 261 297 250 242 267 277
181 192 183 183 185 187 197 183 196 216 213 232 232 214 296 160 180 290 203 206 190 187 161 162 179 192 158 161 170 171 185 200 195 175 214 249 235 265 214 221 255 103 244 292
182 179 190 189 182 183 187 195 175 116 222 254 283 202 223 334 261 189 188 128 181 190 194 193 170 167 180 171 186 174 163 159 185 171 169 255 184 182 197 154 90 91 77 28
171 181 188 184 186 183 182 203 200 193 176 33 320 241 189 189 175 315 181 136 152 169 151 224 115 185 155 166 194 187 189 199 157 189 205 272 309 189 149 107 112 125 112 73
160 175 178 184 193 191 181 181 169 108 97 240 247 238 194 293 237 184 269 168 150 159 300 50 132 139 186 177 200 172 202 202 192 140 214 212 227 198 109 136 155 141 124 126
176 186 176 187 178 182 178 191 165 180 151 225 163 280 256 288 275 274 250 201 147 126 85 80 152 122 358 178 160 140 144 156 181 185 268 171 175 135 131 143 116 121 118 119
158 169 167 179 176 173 128 81 57 215 206 242 142 168 353 322 346 263 233 149 134 135 101 66 85 295 61 13 3 121 158 168 175 208 209 157 159 138 133 137 147 141 133 141
40 53 129 158 165 135 89 61 284 228 285 141 160 322 338 335 318 41 49 30 49 81 108 116 122 165 169 141 183 256 172 168 187 157 333 139 140 137 145 166 165 148 164 154
78 52 43 63 86 130 139 229 134 173 207 133 167 169 15 318 324 1 40 24 55 67 93 118 139 153 180 174 170 170 168 142 130 139 135 123 150 148 156 172 156 145 161 141
116 110 94 100 82 66 49 17 80 349 90 192 172 102 200 328 360 43 39 103 157 31 118 196 139 132 154 191 209 136 131 141 130 130 133 134 143 148 168 182 162 165 180 182
130 143 141 159 50 45 82 235 255 259 267 152 216 146 115 230 109 129 123 88 53 38 81 89 106 137 201 206 173 147 145 144 144 146 144 143 149 179 170 179 183 186 196 210
168 179 203 139 155 120 144 190 215 169 213 10 33 167 106 146 206 116 123 85 109 104 55 126 139 172 180 181 133 142 151 170 163 153 165 164 178 189 194 192 199 199 202 199
213 154 19 103 147 183 211 191 208 143 118 98 39 65 108 350 88 95 57 112 218 117 147 153 174 157 172 139 129 110 111 120 150 153 131 109 147 174 184 196 220 185 195 159
337 307 266 253 271 339 63 11 285 33 91 114 122 97 64 51 25 68 22 88 226 127 162 174 178 154 162 139 130 131 136 148 142 135 129 112 107 106 209 270 198 139 96 105
207 237 22 9 335 5 297 164 87 48 67 131 143 129 137 160 126 52 58 118 71 150 177 211 173 147 139 142 143 143 149 149 137 127 118 115 122 91 5 94 49 66 87 107
358 39 36 358 39 44 1 355 13 23 121 130 127 102 84 92 62 248 94 67 171 208 194 198 129 131 137 143 146 154 161 144 141 139 125 105 105 88 38 52 71 99 105 118
11 19 15 69 110 73 303 279 221 359 122 130 139 95 91 91 85 94 105 173 210 233 199 110 135 137 140 132 153 114 100 86 100 107 116 125 134 141 128 143 167 166 140 128
46 32 133 110 150 122 143 280 123 109 102 114 241 122 128 192 146 175 201 197 208 169 68 102 116 124 125 124 114 111 120 129 141 124 132 138 146 143 130 114 97 115 127 125
43 56 20 316 55 40 35 305 36 127 197 215 279 160 190 192 214 202 200 232 74 100 97 103 125 130 119 121 128 137 146 156 166 153 144 130 128 134 135 130 127 113 109 122